Find Local Weather

World > North America > United States > Missouri

Eminence, Missouri Regional Weather

Lat: 37.15N, Lon: 91.36W
Wx Zone: MOZ098
Warning FLW WEATHER ALERT - (More Info. Click Here) Warning
Feedback
Expires:201807210300;;799212
ASUS43 KLSX 210210
RWRMO 

WEATHER SUMMARY FOR MISSOURI
NATIONAL WEATHER SERVICE SPRINGFIELD MO
900 PM CDT FRI JUL 20 2018

NOTE: "FAIR" INDICATES FEW OR NO CLOUDS BELOW 12,000 FEET WITH NO
       SIGNIFICANT WEATHER AND/OR OBSTRUCTIONS TO VISIBILITY.
       CURRENT SKY AND/OR WEATHER CONDITIONS ARE NOT AVAILABLE FOR
       CHILLICOTHE AND FARMINGTON.


MOZ072>076-082>087-097>100-106>115-210300-
...SOUTH CENTRAL AND SOUTHEAST MISSOURI...
  
CITY           SKY/WX    TMP DP  RH WIND       PRES   REMARKS
CAPE GIRARDEAU FAIR      83  74  74 CALM      29.79R                  
FARMINGTON     CLOUDY    82  70  66 NW5       29.84S                  
POPLAR BLUFF   FAIR      77  70  79 SW7       29.83R                  
WEST PLAINS    CLOUDY    79  73  82 W3        29.90F                  
                                       
$$
  

SKY/WX - Weather  TMP - Temperature  DP - Dewpoint  RH - Relative Humidity
WIND - Wind Direction/Speed PRES - Barometric Pressure